User: anonymous   Login
Location: Strawberry
(45.6646°N, 111.9596°W)
Time: 13:23:31
(UTC+00:00)
Language:

UKube-1 - Orbit

View from above orbital plane
View from above orbital plane
View from above satellite
View from above satellite

Ground track
Ground track

The orbit data is extracted from the following two-line orbital elements,

1 40074U 14037F   22342.10970498  .00002509  00000-0  29265-3 0  9994
2 40074  98.3598 231.7072 0005416  83.7499 276.4352 14.86171081455850
Epoch (UTC): 08 December 2022 02:37:58
Eccentricity: 0.0005416
inclination: 98.3598°
perigee height: 606 km
apogee height: 614 km
right ascension of ascending node: 231.7072°
argument of perigee: 83.7499°
revolutions per day: 14.86171081
mean anomaly at epoch: 276.4352°
orbit number at epoch: 45585

The dashed part of the orbit path shows where the satellite is in the earth's shadow,  

DLR